{"data":{"norad_id":48244,"intl_designator":"2021-031AL","name":"ONEWEB-0200","alt_names":[],"object_type":"PAYLOAD","status":"ACTIVE","operator":null,"country":"UK","launch_date":"2021-04-25","launch_site_code":"VOSTO","launch_vehicle":null,"mission":null,"orbit_class":"UNKNOWN","rcs_meters":null,"size_class":null,"mass_kg":null,"dimensions":null,"purposes":["comms"],"wikipedia_slug":null,"has_3d_model":false,"image_url":null,"decayed_at":null,"tle_current":{"epoch":"2026-05-25T03:15:41.620896Z","epoch_age_seconds":66488,"freshness":"FRESH","line1":"1 48244U 21031AL  26145.13589839 -.00000204  00000+0 -58386-3 0  9993","line2":"2 48244  87.8940 294.2885 0001773 101.4737 258.6592 13.14501687245205","mean_motion":13.14501687,"eccentricity":0.0001773,"inclination_deg":87.894,"raan_deg":294.2885,"arg_perigee_deg":101.4737,"mean_anomaly_deg":258.6592,"bstar":-0.00058386,"rev_number":24520,"period_min":109.54721581883,"perigee_km":1204.4500044824,"apogee_km":1207.1392666404,"semimajor_km":7583.9316355614,"source":"CELESTRAK","updated_at":"2026-05-25T13:38:22.440720Z"}}}